Regional Weather Roundup
Issued by NWS

Home | Current Version | Previous Version | Text Only | Print | Product List | Glossary Off
Versions: 1 2 3 4 5 6 7 8 9 10 11 12 13 14 15 16 17 18 19 20 21 22 23 24 25 26 27 28 29 30 31 32 33 34 35 36 37 38 39 40 41 42 43 44 45 46 47 48 49 50

947
ASUS43 KLMK 202110
RWRKY
KENTUCKY REGIONAL WEATHER ROUNDUP
NATIONAL WEATHER SERVICE LOUISVILLE KY
400 PM EST TUE FEB 20 2018

NOTE "FAIR" INDICATES FEW OR NO CLOUDS BELOW 12,000 FEET
WITH NO SIGNIFICANT WEATHER AND/OR OBSTRUCTIONS TO VISIBILITY.

KYZ001>023-026-027-061>063-070>075-202200-
WESTERN AND SOUTH CENTRAL KENTUCKY

CITY           SKY/WX    TMP DP  RH WIND       PRES   REMARKS
PADUCAH        FAIR      75  58  55 S9G23     30.05F
HENDERSON      PTSUNNY   75  58  55 S17G31    30.06S
OWENSBORO      FAIR      77  57  50 S21       30.07S
HOPKINSVILLE   FAIR      75  58  57 S18G29    30.12F
BOWLING GREEN  PTSUNNY   78  59  51 SW15G26   30.15S
GLASGOW        FAIR      78  57  47 SW15G21   30.17S
$$

KYZ024-025-028>034-038-045-046-053-202200-
NORTH CENTRAL KENTUCKY

CITY           SKY/WX    TMP DP  RH WIND       PRES   REMARKS
LOUISVILLE/SDF CLOUDY    80  55  42 S18G32    30.10R
LOUISVILLE/LOU FAIR      79  56  45 S22G31    30.11R
FORT KNOX      FAIR      77  56  48 S23G33    30.13R
$$

KYZ035>037-039>044-047>052-055>060-089>105-202200-
NORTHEAST KENTUCKY

CITY           SKY/WX    TMP DP  RH WIND       PRES   REMARKS
LEXINGTON      FAIR      79  53  40 SW23G36   30.16S
COVINGTON      CLOUDY    76  56  49 S17G30    30.09S
FRANKFORT      FAIR      78  52  40 SW24G36   30.13S
$$

KYZ054-064>069-076>088-106>120-202200-
SOUTHEAST KENTUCKY

CITY           SKY/WX    TMP DP  RH WIND       PRES   REMARKS
JACKSON        FAIR      77  51  40 VRB6G18   30.22F
LONDON         FAIR      75  54  47 SW17G26   30.24S
SOMERSET       FAIR      75  54  46 MISG      30.23S
MIDDLESBORO    PTSUNNY   76  55  47 S3G16     30.26S
MONTICELLO     NOT AVBL
$$





USA.gov is the U.S. government's official web portal to all federal, state and local government web resources and services.